Weather History for Boothville, LA

Change the Weather History Date:

Monday, April 1, 2013

  Actual Average Record
Temperature  
Mean Temperature 62 °F -  
Max Temperature 68 °F - - ()
Min Temperature 57 °F - - ()
Degree Days  
Heating Degree Days 4    
Growing Degree Days 12 (Base 50)    
Moisture  
Dew Point 60 °F    
Average Humidity 94    
Maximum Humidity 100    
Minimum Humidity 79    
Precipitation  
Precipitation 0.00 in - - ()
Sea Level Pressure  
Sea Level Pressure 30.03 in    
Wind  
Wind Speed 4 mph (North)    
Max Wind Speed 8 mph    
Max Gust Speed -    
Visibility 5 miles    
Events Fog    
T = Trace of Precipitation, MM = Missing Value Source: NWS Daily Summary

Daily Weather History Graph

Daily Weather History Graph

Search for Another Location

Airport:

Trip Planner

Search our weather history database for the weather conditions in past years. The results will help you decide how hot, cold, wet, or windy it might be!

Date:

Astronomy

Apr. 01, 2013 Rise Set
Actual Time 6:46 AM CDT 7:16 PM CDT
Civil Twilight 6:23 AM CDT 7:40 PM CDT
Nautical Twilight 5:55 AM CDT 8:08 PM CDT
Astronomical Twilight 5:26 AM CDT 8:36 PM CDT
Moon 12:04 AM CDT (4/1) 10:53 AM CDT (4/1)
Length of Visible Light 13h 17m
Length of Day
12h 29m
Waning Gibbous, 67% of the Moon is Illuminated
Apr 1
Waning Gibbous
Apr 2
Last Quarter
Apr 10
New
Apr 18
First Quarter
Apr 25
Full

Hourly Weather History & Observations

Time (CDT) Temp. Dew Point Humidity Pressure Visibility Wind Dir Wind Speed Gust Speed Precip Events Conditions
12:51 AM 61.0 °F 59.0 °F 93% 29.95 in 10.0 mi South 3.5 mph - N/A   Clear
1:51 AM 64.0 °F 62.1 °F 93% 29.93 in 10.0 mi South 6.9 mph - N/A   Clear
2:51 AM 60.1 °F 57.9 °F 93% 29.94 in 7.0 mi Calm Calm - N/A   Clear
3:51 AM 64.0 °F 61.0 °F 90% 29.97 in 10.0 mi SW 4.6 mph - N/A   Clear
4:46 AM 57.9 °F 57.0 °F 97% 29.98 in 2.5 mi NNW 6.9 mph - N/A   Partly Cloudy
4:55 AM 57.2 °F 57.2 °F 100% 29.98 in 4.0 mi NNW 5.8 mph - N/A   Clear
5:46 AM 60.8 °F 59.0 °F 94% 30.01 in 2.5 mi NNW 3.5 mph - N/A   Partly Cloudy
5:49 AM 59.0 °F 59.0 °F 100% 30.01 in 1.0 mi NNW 3.5 mph - N/A   Mist
5:51 AM 59.0 °F 59.0 °F 100% 30.01 in 0.8 mi NNW 3.5 mph - N/A   Mist
6:01 AM 59.0 °F 59.0 °F 100% 30.01 in 0.2 mi North 3.5 mph - N/A Fog Fog
6:08 AM 59.0 °F 59.0 °F 100% 30.01 in 0.5 mi Calm Calm - N/A Fog Fog
6:21 AM 59.0 °F 59.0 °F 100% 30.02 in 0.2 mi Calm Calm - N/A Fog Fog
6:29 AM 59.0 °F 59.0 °F 100% 30.02 in 0.5 mi Calm Calm - N/A Fog Fog
6:38 AM 57.2 °F 57.2 °F 100% 30.03 in 0.2 mi Calm Calm - N/A Fog Fog
6:51 AM 59.0 °F 59.0 °F 100% 30.03 in 0.2 mi Calm Calm - N/A Fog Fog
7:15 AM 59.0 °F 59.0 °F 100% 30.03 in 0.2 mi Calm Calm - N/A Fog Fog
7:41 AM 60.8 °F 60.8 °F 100% 30.03 in 0.8 mi Calm Calm - N/A   Mist
7:48 AM 60.8 °F 60.8 °F 100% 30.04 in 2.0 mi Calm Calm - N/A   Overcast
7:51 AM 61.0 °F 61.0 °F 100% 30.04 in 4.0 mi Calm Calm - N/A   Mostly Cloudy
8:06 AM 62.6 °F 62.6 °F 100% 30.05 in 9.0 mi Calm Calm - N/A   Scattered Clouds
8:14 AM 60.8 °F 60.8 °F 100% 30.06 in 1.0 mi North 4.6 mph - N/A   Mist
8:18 AM 60.8 °F 60.8 °F 100% 30.06 in 0.2 mi North 3.5 mph - N/A Fog Fog
8:51 AM 62.1 °F 62.1 °F 100% 30.06 in 0.2 mi Variable 4.6 mph - N/A Fog Fog
9:51 AM 61.0 °F 61.0 °F 100% 30.07 in 0.2 mi North 4.6 mph - N/A Fog Fog
10:51 AM 62.1 °F 61.0 °F 96% 30.09 in 0.2 mi NNW 6.9 mph - N/A Fog Fog
10:58 AM 62.6 °F 60.8 °F 94% 30.09 in 0.8 mi NNW 6.9 mph - N/A   Mist
11:01 AM 62.6 °F 60.8 °F 94% 30.09 in 2.0 mi NNW 6.9 mph - N/A   Overcast
11:09 AM 62.6 °F 60.8 °F 94% 30.09 in 6.0 mi NNW 8.1 mph - N/A   Overcast
11:23 AM 62.6 °F 60.8 °F 94% 30.08 in 9.0 mi North 6.9 mph - N/A   Overcast
11:42 AM 64.4 °F 60.8 °F 88% 30.09 in 10.0 mi North 8.1 mph - N/A   Scattered Clouds
11:51 AM 64.9 °F 60.1 °F 84% 30.08 in 10.0 mi North 8.1 mph - N/A   Partly Cloudy
12:51 PM 66.9 °F 60.1 °F 79% 30.08 in 10.0 mi Variable 6.9 mph - N/A   Clear
1:51 PM 66.0 °F 60.1 °F 81% 30.06 in 10.0 mi NNE 8.1 mph - N/A   Clear
2:51 PM 66.0 °F 60.1 °F 81% 30.05 in 10.0 mi NNE 8.1 mph - N/A   Clear
3:51 PM 64.9 °F 59.0 °F 81% 30.04 in 9.0 mi ENE 6.9 mph - N/A   Clear
4:51 PM 64.9 °F 60.1 °F 84% 30.03 in 10.0 mi ENE 5.8 mph - N/A   Clear
5:51 PM 64.9 °F 59.0 °F 81% 30.03 in 10.0 mi ENE 5.8 mph - N/A   Clear
6:51 PM 64.9 °F 59.0 °F 81% 30.03 in 7.0 mi Calm Calm - N/A   Clear
7:51 PM 63.0 °F 59.0 °F 87% 30.02 in 10.0 mi Calm Calm - N/A   Clear
8:51 PM 61.0 °F 59.0 °F 93% 30.03 in 8.0 mi Calm Calm - N/A   Clear
9:51 PM 60.1 °F 57.9 °F 93% 30.05 in 6.0 mi Calm Calm - N/A   Clear
10:51 PM 61.0 °F 60.1 °F 97% 30.06 in 6.0 mi SSE 3.5 mph - N/A   Clear
11:51 PM 62.1 °F 60.1 °F 93% 30.07 in 7.0 mi Calm Calm - N/A   Clear